STARLINK-32225, 62036

Orbit data source: Space-Track

STARLINK-32225, 62036 is a payload satellite owned by SpaceX/Seattle (US) in LEO that was launched on Thu, 21 Nov 2024 UTC via an FALCON 9 launch vehicle from the Air Force Eastern Test Range (AFETR). Payloads include a variety of satellites, spacecraft, and rockets equipped with specific instruments for various scientific and technological missions. These include communications satellites like Starlink; space stations such as the ISS; scientific satellites like the Hubble; Earth observation satellites from companies like Planet Labs, Umbra, and HawkEye 360; GPS; miniature CubeSats for education and research; and military/defense satellites.

Loading next visibility...
STARLINK-32225 details
Identifier
62036, 2024-216E
Orbit
LEO
Last TLE update11 hours ago
Origin
Flag of USSpaceX/Seattle (US)
ManufacturerSpaceX/Seattle
MissionOperational spacecraft
Bus & MotorSTARLINK V2M, Unknown motor
Mass730 kg wet, ~700 kg dry
Launch date (UTC)
2024-11-21 (3 weeks ago)
Launch vehicle
FALCON 9
Launch site
Air Force Eastern Test Range (AFETR)
Object type
Payload
Rocket body
Debris
Shape & HBRUnknown
Radar Cross SectionLarge (>1 m²)

Expand to show TLE details & history

TLE from 11 hours ago
0 STARLINK-32225
1 62036U 24216E   24348.50002315 -.00005747  00000-0 -92189-4 0  9997
2 62036  42.9997 307.4071 0001150 277.5030 180.4106 15.50587409  4673
Epoch: 2024-12-13T12:00Z
Definitive object data (Epoch: 2024-12-13T12:00:02Z)
Latitude42.6514°
Longitude145.50619°
Altitude418.814 km
Speed7.665 km/s
True Right ascension03h 12m 43s
True Declination42° 28' 17"
Sunlit
Object was in full shadow at TLE epoch
Visualization TLE readout
Latitude29.62153°
Longitude79.47436°
Altitude415.986 km
Speed7.666 km/s
Apparent Right ascension02h 27m 13s
Apparent Declination-15° 58' 55"
Sunlit
Object is in daylight
Visualization observer readout
Local Sidereal Time21:07:56
Azimuth108.695° ESE
Elevation-2.658°
Doppler factor1
Orbital elements
Apogee altitude417.756 km
Perigee altitude416.193 km
Semi-major axis6,795.112 km
Eccentricity0.000115
Inclination42.9997°
RAAN307.4071°
Arg. of periapsis277.503°
True anomaly180.41051°
Mean anomaly180.4106°
Eccentric anomaly180.41055°
Mean motion3.87479 °/min
BSTAR-0.000092189
Orbital period92.91 mins
Loading maneuver chart data...
Loading historical data...
Loading historical data...
Loading historical data...
Loading historical data...
Loading historical data...
Loading historical data...
Loading historical data...

STARLINK-32225 Visibility forecast

Observer location: undefined°, undefined

Span
Click to sort rows by Start time (UTC) header in descending order
Start Az.
Max El. time (UTC)
Max El. Az.
Max El.
End time (UTC)
End Az.
4 mins2024-12-14 00:08:00.931Z184.55° SSW2024-12-14 00:10:00.931Z146.361° SSE16.035°2024-12-14 00:12:00.931Z106.637° ESE
5 mins2024-12-14 01:45:00.931Z244.622° WSW2024-12-14 01:47:00.931Z198.569° SSW44.205°2024-12-14 01:50:00.931Z73.54° E
4 mins2024-12-14 03:23:00.931Z292.614° NW2024-12-14 03:25:00.931Z16.976° NNE35.816°2024-12-14 03:27:00.931Z67.609° E
4 mins2024-12-14 05:01:00.931Z298.323° NW2024-12-14 05:02:00.931Z328.861° NNW41.695°2024-12-14 05:05:00.931Z97.937° ESE
4 mins2024-12-14 06:38:00.931Z256.356° W2024-12-14 06:40:00.931Z196.247° SSW25.22°2024-12-14 06:42:00.931Z153.696° SSE
|